{"data":{"norad_id":58258,"intl_designator":"2023-174C","name":"ORBASTRO-PC-1","alt_names":[],"object_type":"PAYLOAD","status":"ACTIVE","operator":null,"country":"UK","launch_date":"2023-11-11","launch_site_code":"AFWTR","launch_vehicle":null,"mission":null,"orbit_class":"UNKNOWN","rcs_meters":null,"size_class":null,"mass_kg":null,"dimensions":null,"purposes":[],"wikipedia_slug":null,"has_3d_model":false,"image_url":null,"decayed_at":null,"tle_current":{"epoch":"2026-05-25T04:28:50.093760Z","epoch_age_seconds":62062,"freshness":"FRESH","line1":"1 58258U 23174C   26145.18669090  .00022999  00000+0  44842-3 0  9997","line2":"2 58258  97.3771 230.7495 0005246 240.4250 119.6478 15.47516874141918","mean_motion":15.47516874,"eccentricity":0.0005246,"inclination_deg":97.3771,"raan_deg":230.7495,"arg_perigee_deg":240.425,"mean_anomaly_deg":119.6478,"bstar":0.00044842,"rev_number":14191,"period_min":93.052297147359,"perigee_km":420.42436368702,"apogee_km":427.56115823222,"semimajor_km":6802.1297609596,"source":"CELESTRAK","updated_at":"2026-05-25T13:38:00.639464Z"}}}